Track ONEWEB-0327 now! 10-day predictions ONEWEB-0327 is classified as:
1 49196U 21083L 22136.91667824 -.00021648 00000-0 -55064-1 0 9994 2 49196 87.9120 271.9337 0002653 114.0561 90.6680 13.18697848 34623